Location: Newark
(44.3867°N, 6.6531°E)
Time: 10:05:25
(UTC+00:00)

ISS - Visible Passes

Search period start: 20 January 2020 00:00
Search period end: 30 January 2020 00:00
Orbit: 415 x 421 km, 51.6° (Epoch: 20 January)

Date Brightness Start Highest point End Pass type
(mag) Time Alt. Az. Time Alt. Az. Time Alt. Az.
20 Jan -1.5 17:24:25 10° SSE 17:25:45 12° SE 17:26:49 11° ESE visible
20 Jan -1.2 18:58:41 10° SW 18:59:47 19° SW 18:59:47 19° SW visible
21 Jan -3.5 18:10:50 10° SW 18:14:04 50° SE 18:14:04 50° SE visible
22 Jan -2.6 17:23:12 10° SSW 17:26:12 30° SE 17:28:17 16° E visible
22 Jan -1.4 18:59:37 10° W 19:01:13 24° W 19:01:13 24° W visible
23 Jan -3.6 18:11:28 10° WSW 18:14:50 67° NNW 18:15:21 55° NNE visible
24 Jan -3.8 17:23:26 10° SW 17:26:48 80° SSE 17:29:25 16° ENE visible
24 Jan -1.3 19:00:52 10° WNW 19:02:21 20° WNW 19:02:21 20° WNW visible
25 Jan -2.7 18:12:33 10° W 18:15:41 35° NNW 18:16:22 31° N visible
26 Jan -3.1 17:24:17 10° W 17:27:33 47° NNW 17:30:19 13° NE visible
26 Jan -1.1 19:02:06 10° WNW 19:03:15 17° NW 19:03:15 17° NW visible
27 Jan -2.2 18:13:47 10° WNW 18:16:39 25° N 18:17:11 24° N visible
28 Jan -2.3 17:25:25 10° WNW 17:28:25 29° NNW 17:31:06 12° NE visible
28 Jan -1.0 19:03:04 10° NW 19:04:01 15° NW 19:04:01 15° NW visible
29 Jan -2.1 18:14:52 10° NW 18:17:38 23° N 18:17:55 22° N visible
